Weather History for KEAT - February, 2014

Change the Weather History Date:

Sunday, February 16, 2014

  Actual Average Record
Temperature  
Mean Temperature 38 °F 31 °F  
Max Temperature 41 °F 39 °F 63 °F (1977)
Min Temperature 34 °F 23 °F 14 °F (1993)
Degree Days  
Heating Degree Days 27 34  
Month to date heating degree days 680 554  
Since 1 July heating degree days 4844 4811  
Cooling Degree Days 0 0  
Month to date cooling degree days 0 0  
Year to date cooling degree days 0 0  
Moisture  
Dew Point 24 °F    
Average Humidity 53    
Maximum Humidity 82    
Minimum Humidity 38    
Precipitation  
Precipitation T in 0.05 in 0.71 in (1972)
Month to date precipitation 0.92 0.85  
Year to date precipitation 1.92 2.72  
Snow  
Snow T in 0.20 in - ()
Month to date snowfall 6.4 4.0  
Since 1 July snowfall 18.8 44.4  
Snow Depth 0.00 in    
Sea Level Pressure  
Sea Level Pressure 29.79 in    
Wind  
Wind Speed 8 mph (WSW)    
Max Wind Speed 20 mph    
Max Gust Speed 26 mph    
Visibility 10 miles    
Events      
T = Trace of Precipitation, MM = Missing Value Source: NWS Daily Summary

Daily Weather History Graph

Daily Weather History Graph

Search for Another Location

Airport or City:

Trip Planner

Search our weather history database for the weather conditions in past years. The results will help you decide how hot, cold, wet, or windy it might be!

Date:

Astronomy

Feb. 16, 2014 Rise Set
Actual Time 7:04 AM PST 5:26 PM PST
Civil Twilight 6:32 AM PST 5:57 PM PST
Nautical Twilight 5:56 AM PST 6:33 PM PST
Astronomical Twilight 5:21 AM PST 7:09 PM PST
Moon 7:39 PM PST (2/16) 7:26 AM PST (2/16)
Length of Visible Light 11h 25m
Length of Day
10h 22m
Full, 97% of the Moon is Illuminated
Feb 16
Full
Feb 22
Last Quarter
Mar 1
New
Mar 8
First Quarter
Mar 16
Full

Hourly Weather History & Observations

Time (PST) Temp. Windchill Dew Point Humidity Pressure Visibility Wind Dir Wind Speed Gust Speed Precip Events Conditions
12:55 AM 39.0 °F 35.7 °F 25.0 °F 57% 29.59 in 10.0 mi Variable 4.6 mph - N/A   Clear
1:55 AM 36.0 °F 32.1 °F 24.1 °F 62% 29.62 in 10.0 mi NW 4.6 mph - N/A   Clear
2:55 AM 39.9 °F 33.4 °F 23.0 °F 51% 29.63 in 10.0 mi WSW 10.4 mph - N/A   Clear
3:55 AM 37.9 °F 32.7 °F 23.0 °F 55% 29.66 in 10.0 mi SW 6.9 mph - N/A   Clear
4:55 AM 39.0 °F 32.8 °F 21.9 °F 50% 29.68 in 10.0 mi South 9.2 mph - N/A   Partly Cloudy
5:55 AM 39.0 °F 31.8 °F 19.9 °F 46% 29.72 in 10.0 mi WSW 11.5 mph 23.0 mph N/A   Clear
6:55 AM 36.0 °F 28.5 °F 21.9 °F 57% 29.75 in 10.0 mi West 10.4 mph - N/A   Clear
7:55 AM 36.0 °F 30.3 °F 21.0 °F 55% 29.80 in 10.0 mi WNW 6.9 mph - N/A   Clear
8:55 AM 35.1 °F 30.1 °F 21.9 °F 59% 29.83 in 10.0 mi ENE 5.8 mph - N/A   Clear
9:55 AM 36.0 °F 32.1 °F 24.1 °F 62% 29.86 in 10.0 mi SSE 4.6 mph - N/A   Clear
10:55 AM 39.9 °F 35.8 °F 23.0 °F 51% 29.90 in 10.0 mi West 5.8 mph 16.1 mph N/A   Clear
11:55 AM 41.0 °F 32.8 °F 21.9 °F 47% 29.90 in 10.0 mi WNW 16.1 mph 23.0 mph N/A   Clear
12:55 PM 43.0 °F 34.5 °F 21.9 °F 43% 29.91 in 10.0 mi West 19.6 mph - N/A   Clear
1:55 PM 44.1 °F 36.5 °F 19.9 °F 38% 29.91 in 10.0 mi WSW 17.3 mph - N/A   Clear
2:55 PM 44.1 °F 39.0 °F 19.9 °F 38% 29.92 in 10.0 mi West 9.2 mph - N/A   Clear
3:55 PM 45.0 °F - 21.0 °F 39% 29.90 in 10.0 mi Calm Calm - N/A   Clear
4:55 PM 43.0 °F 37.7 °F 23.0 °F 45% 29.90 in 10.0 mi SE 9.2 mph - N/A   Partly Cloudy
5:55 PM 42.1 °F 34.9 °F 24.1 °F 49% 29.87 in 10.0 mi ESE 13.8 mph 20.7 mph N/A   Clear
6:55 PM 41.0 °F 35.8 °F 26.1 °F 55% 29.85 in 10.0 mi East 8.1 mph - N/A   Clear
7:55 PM 42.1 °F - 28.0 °F 58% 29.80 in 10.0 mi North - - N/A   Mostly Cloudy
8:55 PM 43.0 °F 34.8 °F 28.9 °F 58% 29.77 in 10.0 mi SE 18.4 mph 26.5 mph N/A   Overcast
9:55 PM 43.0 °F 38.2 °F 28.9 °F 58% 29.75 in 10.0 mi SE 8.1 mph - 0.00 in   Overcast
10:55 PM 43.0 °F 40.3 °F 30.0 °F 60% 29.73 in 10.0 mi ENE 4.6 mph - 0.00 in   Overcast
11:55 PM 37.0 °F 33.3 °F 32.0 °F 82% 29.72 in 10.0 mi WNW 4.6 mph - N/A   Overcast